Location: Antin
(43.3330°N, 0.2804°E)
Time: 23:37:35
(UTC+00:00)

Iridium 4 Rocket - Pass Details

Date: 16 October 2021
Orbit: 586 x 903 km, 86.9° (Epoch: 04 December)

Event Time Altitude Azimuth Distance (km) Brightness Sun altitude
Rises 19:26:16 0° 350° (N) 2,885 6.8 -24.7°
Reaches altitude 10° 19:28:30 10° 343° (NNW) 2,007 6.0 -25.1°
Maximum altitude 19:32:38 41° 273° (W) 958 4.4 -25.9°
Drops below altitude 10° 19:37:03 10° 204° (SSW) 2,148 5.9 -26.7°
Sets 19:39:31 0° 197° (SSW) 3,116 6.7 -27.1°
